Weather in Khotkovo

Russia / Kaluga Oblast     53°45′54″N   35°13′24″E
temp.,
°C
wind,
m/s
gust,
m/s
humid.,
%
clouds,
%
prec.,
mm/h
press.,
hPa
HPBL,
m
21 june, mon
mon2100:00+18ese228992 0.0 102046
03:00+16e2594100 0.0 102086
06:00+18e2586100 0.0 1020137
09:00+23e356237 0.0 1020482
12:00+28ese464624 0.0 10191102
15:00+29ese45465 0.0 10191211
18:00+27ese356182 0.0 1018939
21:00+21ese269160 0.0 1019122
22 june, tue
tue2200:00+19se279743 0.0 1019146
03:00+18ese23965 0.0 102047
06:00+18ese26914 0.0 1020154
09:00+25se47585 0.0 1020506
12:00+30se47425 0.0 10191207
15:00+31se56422 0.0 10191553
18:00+29se46583 0.0 10191172
21:00+22ese2490100 0.0 102075
23 june, wed
wed2300:00+20se259332 0.0 1020100
03:00+18se259130 0.0 102097
06:00+20e258620 0.0 1020134
09:00+26ese35595 0.0 1020522
12:00+30ese45435 0.0 10201274
15:00+32e44381 0.0 10191580
18:00+29ese34544 0.0 10191007
21:00+23e228611 0.0 102026
24 june, thu
thu2400:00+21e239077 0.0 101953
03:00+19ese229416 0.0 102024
06:00+21ese12898 0.0 102085
09:00+27ese23636 0.0 1019501
12:00+31sse224112 0.0 10191420
15:00+33se333349 0.0 10182390
18:00+31sse35506 0.0 1017665
21:00+24s22835 0.0 101723
25 june, fri
fri2500:00+21s11895 0.0 101811
03:00+20ssw11945 0.0 101711
06:00+22sse12875 0.0 101765
09:00+28s22615 0.0 1017578
12:00+32sw23425 0.0 10161757
15:00+33wsw213555 0.0 10152992
18:00+27e6866100 1.1 1012281
21:00+17wnw61396100 11.3 1017328